• In United Kingdom
  • List of Countries
  • For 7 days
  • Water Temperature
  • Satellite Maps
  • Weather Map
  • Weather Widgets
  • user-avatar
    Login

    Hourly Weather Nottingham

    Today, 20 September, Thursday

    Time Temperature Precipitation Wind Pressure Humidity
    00:00 +12°C° 0.1 mm 5 mps 753 mmHg 74%
    01:00 +12°C° 0.1 mm 4 mps 753 mmHg 76%
    02:00 +12°C° 0.1 mm 4 mps 753 mmHg 78%
    03:00 +12°C° 0.1 mm 3 mps 752 mmHg 81%
    04:00 +12°C° 0.2 mm 3 mps 752 mmHg 82%
    05:00 +13°C° 0.2 mm 2 mps 752 mmHg 84%
    06:00 +13°C° 0.2 mm 2 mps 752 mmHg 85%
    07:00 +13°C° 0.8 mm 2 mps 752 mmHg 86%
    08:00 +13°C° 0.8 mm 2 mps 752 mmHg 87%
    09:00 +14°C° 0.8 mm 2 mps 751 mmHg 87%
    10:00 +14°C° 1.2 mm 2 mps 751 mmHg 88%
    11:00 +14°C° 1.2 mm 3 mps 750 mmHg 89%
    12:00 +14°C° 1.2 mm 4 mps 750 mmHg 90%
    13:00 +15°C° 1.6 mm 5 mps 749 mmHg 89%
    14:00 +16°C° 1.6 mm 7 mps 748 mmHg 89%
    15:00 +17°C° 1.6 mm 8 mps 747 mmHg 89%
    16:00 +17°C° 1 mm 9 mps 746 mmHg 87%
    17:00 +17°C° 1 mm 9 mps 744 mmHg 86%
    18:00 +17°C° 1 mm 9 mps 743 mmHg 84%
    19:00 +17°C° 0.8 mm 10 mps 742 mmHg 85%
    20:00 +17°C° 0.8 mm 10 mps 741 mmHg 86%
    21:00 +17°C° 0.8 mm 10 mps 740 mmHg 87%
    22:00 +16°C° 1.2 mm 10 mps 740 mmHg 85%
    23:00 +16°C° 1.2 mm 9 mps 740 mmHg 84%

    Tomorrow, 21 September, Friday

    Time Temperature Precipitation Wind Pressure Humidity
    00:00 +15°C° 1.2 mm 9 mps 740 mmHg 82%
    01:00 +12°C° 0.1 mm 9 mps 741 mmHg 81%
    02:00 +11°C° 0.1 mm 9 mps 742 mmHg 80%
    03:00 +8°C° 0.1 mm 9 mps 743 mmHg 78%
    04:00 +7°C° 0 mm 9 mps 744 mmHg 78%
    05:00 +7°C° 0 mm 8 mps 745 mmHg 77%
    06:00 +8°C° 0 mm 7 mps 746 mmHg 76%
    07:00 +7°C° 0 mm 8 mps 747 mmHg 72%
    08:00 +8°C° 0 mm 9 mps 747 mmHg 68%
    09:00 +10°C° 0 mm 9 mps 748 mmHg 63%
    10:00 +11°C° 0 mm 10 mps 748 mmHg 62%
    11:00 +12°C° 0 mm 11 mps 749 mmHg 60%
    12:00 +13°C° 0 mm 11 mps 749 mmHg 58%
    13:00 +13°C° 0 mm 11 mps 750 mmHg 57%
    14:00 +13°C° 0 mm 10 mps 751 mmHg 56%
    15:00 +13°C° 0 mm 10 mps 751 mmHg 56%
    16:00 +12°C° 0 mm 8 mps 752 mmHg 60%
    17:00 +11°C° 0 mm 7 mps 753 mmHg 64%
    18:00 +10°C° 0 mm 5 mps 753 mmHg 67%
    19:00 +10°C° 0 mm 5 mps 754 mmHg 70%
    20:00 +9°C° 0 mm 5 mps 755 mmHg 73%
    21:00 +10°C° 0 mm 4 mps 756 mmHg 75%
    22:00 +8°C° 0 mm 4 mps 756 mmHg 77%
    23:00 +8°C° 0 mm 4 mps 756 mmHg 79%

    Day after tomorrow, 22 September, Saturday

    Time Temperature Precipitation Wind Pressure Humidity
    00:00 +7°C° 0 mm 4 mps 757 mmHg 80%
    01:00 +7°C° 0 mm 4 mps 757 mmHg 81%
    02:00 +7°C° 0 mm 4 mps 757 mmHg 82%
    03:00 +7°C° 0 mm 4 mps 758 mmHg 82%
    04:00 +7°C° 0 mm 4 mps 758 mmHg 82%
    05:00 +7°C° 0 mm 4 mps 758 mmHg 81%
    06:00 +7°C° 0 mm 4 mps 758 mmHg 81%
    07:00 +8°C° 0 mm 4 mps 759 mmHg 76%
    08:00 +10°C° 0 mm 4 mps 759 mmHg 72%
    09:00 +10°C° 0 mm 5 mps 759 mmHg 67%
    10:00 +12°C° 0 mm 5 mps 759 mmHg 64%
    11:00 +13°C° 0 mm 5 mps 759 mmHg 62%
    12:00 +13°C° 0 mm 5 mps 759 mmHg 59%
    13:00 +13°C° 0 mm 4 mps 759 mmHg 58%
    14:00 +14°C° 0 mm 4 mps 759 mmHg 58%
    15:00 +14°C° 0 mm 4 mps 759 mmHg 58%
    16:00 +13°C° 0 mm 3 mps 759 mmHg 61%
    17:00 +13°C° 0 mm 2 mps 759 mmHg 64%
    18:00 +13°C° 0 mm 1 mps 758 mmHg 67%
    19:00 +12°C° 0 mm 1 mps 758 mmHg 69%
    20:00 +12°C° 0 mm 1 mps 758 mmHg 71%
    21:00 +12°C° 0 mm 1 mps 758 mmHg 72%
    22:00 +11°C° 0.5 mm 1 mps 758 mmHg 76%
    23:00 +10°C° 0.5 mm 2 mps 757 mmHg 80%

    23 September, Sunday

    Time Temperature Precipitation Wind Pressure Humidity
    00:00 +10°C° 0.5 mm 2 mps 756 mmHg 84%
    01:00 +9°C° 1 mm 3 mps 755 mmHg 85%
    02:00 +8°C° 1 mm 4 mps 753 mmHg 87%
    03:00 +8°C° 1 mm 6 mps 752 mmHg 88%
    04:00 +8°C° 2.9 mm 7 mps 750 mmHg 89%
    05:00 +8°C° 2.9 mm 7 mps 748 mmHg 90%
    06:00 +7°C° 2.9 mm 8 mps 746 mmHg 91%
    07:00 +7°C° 7.1 mm 9 mps 745 mmHg 91%
    08:00 +7°C° 7.1 mm 10 mps 743 mmHg 91%
    09:00 +7°C° 7.1 mm 10 mps 742 mmHg 91%
    10:00 +7°C° 2.8 mm 11 mps 741 mmHg 90%
    11:00 +7°C° 2.8 mm 12 mps 741 mmHg 89%
    12:00 +7°C° 2.8 mm 12 mps 740 mmHg 88%
    13:00 +7°C° 2.9 mm 13 mps 742 mmHg 85%
    14:00 +6°C° 2.9 mm 14 mps 743 mmHg 82%
    15:00 +6°C° 2.9 mm 15 mps 745 mmHg 79%
    16:00 +7°C° 0.1 mm 13 mps 748 mmHg 76%
    17:00 +7°C° 0.1 mm 12 mps 751 mmHg 73%
    18:00 +6°C° 0.1 mm 10 mps 754 mmHg 70%
    19:00 +6°C° 0 mm 9 mps 756 mmHg 69%
    20:00 +6°C° 0 mm 8 mps 758 mmHg 68%
    21:00 +5°C° 0 mm 7 mps 760 mmHg 67%
    22:00 +5°C° 0 mm 7 mps 761 mmHg 66%
    23:00 +5°C° 0 mm 6 mps 762 mmHg 65%

    24 September, Monday

    Time Temperature Precipitation Wind Pressure Humidity
    00:00 +5°C° 0 mm 5 mps 763 mmHg 65%
    01:00 +5°C° 0 mm 5 mps 764 mmHg 67%
    02:00 +5°C° 0 mm 4 mps 765 mmHg 69%
    03:00 +5°C° 0 mm 4 mps 766 mmHg 71%
    04:00 +4°C° 0 mm 3 mps 767 mmHg 73%
    05:00 +4°C° 0 mm 3 mps 767 mmHg 76%
    06:00 +4°C° 0 mm 3 mps 768 mmHg 78%
    07:00 +6°C° 0 mm 4 mps 768 mmHg 74%
    08:00 +7°C° 0 mm 4 mps 769 mmHg 70%
    09:00 +9°C° 0 mm 5 mps 769 mmHg 66%
    10:00 +10°C° 0 mm 5 mps 770 mmHg 64%
    11:00 +11°C° 0 mm 6 mps 770 mmHg 62%
    12:00 +13°C° 0 mm 6 mps 771 mmHg 59%
    13:00 +13°C° 0 mm 6 mps 770 mmHg 59%
    14:00 +13°C° 0 mm 6 mps 770 mmHg 59%
    15:00 +13°C° 0 mm 6 mps 770 mmHg 58%
    16:00 +12°C° 0 mm 5 mps 770 mmHg 63%
    17:00 +11°C° 0 mm 4 mps 771 mmHg 69%
    18:00 +10°C° 0 mm 3 mps 771 mmHg 74%
    19:00 +9°C° 0 mm 3 mps 771 mmHg 77%
    20:00 +9°C° 0 mm 3 mps 771 mmHg 80%
    21:00 +8°C° 0 mm 3 mps 772 mmHg 83%
    22:00 +8°C° 0 mm 3 mps 772 mmHg 84%
    23:00 +7°C° 0 mm 3 mps 772 mmHg 85%

    25 September, Tuesday

    Time Temperature Precipitation Wind Pressure Humidity
    00:00 +7°C° 0 mm 3 mps 772 mmHg 87%
    01:00 +7°C° 0 mm 3 mps 772 mmHg 87%
    02:00 +7°C° 0 mm 2 mps 772 mmHg 88%
    03:00 +7°C° 0 mm 2 mps 772 mmHg 88%
    04:00 +7°C° 0 mm 2 mps 772 mmHg 89%
    05:00 +6°C° 0 mm 2 mps 772 mmHg 89%
    06:00 +6°C° 0 mm 2 mps 772 mmHg 89%
    07:00 +8°C° 0 mm 2 mps 772 mmHg 85%
    08:00 +9°C° 0 mm 2 mps 772 mmHg 80%
    09:00 +11°C° 0 mm 3 mps 772 mmHg 75%
    10:00 +12°C° 0 mm 3 mps 771 mmHg 70%
    11:00 +13°C° 0 mm 3 mps 771 mmHg 65%
    12:00 +14°C° 0 mm 4 mps 771 mmHg 60%
    13:00 +14°C° 0 mm 4 mps 770 mmHg 58%
    14:00 +14°C° 0 mm 4 mps 769 mmHg 57%
    15:00 +15°C° 0 mm 4 mps 769 mmHg 55%
    16:00 +13°C° 0 mm 4 mps 768 mmHg 59%
    17:00 +12°C° 0 mm 3 mps 768 mmHg 63%
    18:00 +11°C° 0 mm 3 mps 768 mmHg 67%
    19:00 +11°C° 0 mm 3 mps 768 mmHg 69%
    20:00 +10°C° 0 mm 3 mps 768 mmHg 71%
    21:00 +9°C° 0 mm 3 mps 768 mmHg 73%
    22:00 +9°C° 0 mm 3 mps 767 mmHg 76%
    23:00 +9°C° 0 mm 3 mps 767 mmHg 79%
    Show more